This is the latest recevied weather packets stored in our database for station/object HP1MRA-15. If no packets are shown the sender has not sent any weather packets the latest 10 day(s).
| Time | Temp. | Humidity | Pressure | Rain* | Wind** | Luminosity | Snow |
|---|---|---|---|---|---|---|---|
| 1777741943 | 30° C | 77% | 1003.7 hPa | 0 mm | - | - | - |
| 1777741643 | 30° C | 75% | 1003.7 hPa | 0 mm | - | - | - |
| 1777741342 | 30.56° C | 73% | 1003.8 hPa | 0 mm | - | - | - |
| 1777741043 | 31.11° C | 71% | 1003.7 hPa | 0 mm | - | - | - |
| 1777740742 | 31.11° C | 71% | 1003.8 hPa | 0 mm | - | - | - |
| 1777740442 | 31.67° C | 69% | 1003.8 hPa | 0 mm | - | - | - |
| 1777740142 | 32.22° C | 67% | 1003.7 hPa | 0 mm | - | - | - |
| 1777739842 | 32.22° C | 69% | 1003.6 hPa | 0 mm | - | - | - |
| 1777739542 | 32.22° C | 70% | 1003.6 hPa | 0 mm | - | - | - |
| 1777739243 | 32.22° C | 69% | 1003.5 hPa | 0 mm | - | - | - |
| 1777738942 | 32.22° C | 69% | 1003.5 hPa | 0 mm | - | - | - |
| 1777738643 | 32.22° C | 70% | 1003.6 hPa | 0 mm | - | - | - |
| 1777738342 | 32.22° C | 70% | 1003.7 hPa | 0 mm | - | - | - |
| 1777738042 | 32.22° C | 69% | 1003.7 hPa | 0 mm | - | - | - |
| 1777737742 | 32.22° C | 70% | 1003.7 hPa | 0 mm | - | - | - |
| 1777737442 | 32.22° C | 71% | 1003.6 hPa | 0 mm | - | - | - |
| 1777737142 | 31.67° C | 69% | 1003.6 hPa | 0 mm | - | - | - |
| 1777736841 | 31.67° C | 72% | 1003.7 hPa | 0 mm | - | - | - |
| 1777736542 | 31.67° C | 72% | 1003.7 hPa | 0 mm | - | - | - |
| 1777736242 | 31.67° C | 73% | 1003.6 hPa | 0 mm | - | - | - |
| 1777735941 | 31.11° C | 75% | 1003.8 hPa | 0 mm | - | - | - |
| 1777735642 | 31.11° C | 74% | 1003.8 hPa | 0 mm | - | - | - |
| 1777735341 | 30.56° C | 75% | 1003.7 hPa | 0 mm | - | - | - |
| 1777735042 | 30.56° C | 74% | 1003.5 hPa | 0 mm | - | - | - |
| 1777734742 | 30.56° C | 75% | 1003.6 hPa | 0 mm | - | - | - |
* Rain latest hour (hover to see other rain measurements)
** Current wind speed in m/s (hover to see current wind gust speed)